History for DABB

Annaba, DZ

Daily Weekly Monthly
Daily Summary for Monday, March 18, 2019
  Actual: Average: Record:
Temperature
Mean Temperature: 54 °F / 12 °C - :  
Max Temperature: 62 °F / 17 °C 66 °F / 19 °C - ()
Min Temperature: 45 °F / 7 °C 48 °F / 9 °C - ()
Degree Days
Heating Degree Days: 12    
Growing Degree Days 4 (Base 50)    
Moisture
Dew Point 47 °F / 8 °C    
Average Humidity 75    
Maximum Humidity 94    
Minimum Humidity 52    
Precipitation
Precipitation 0.00 in / 0.0 cm 0.08 in / 1.9 cm - ()
Sea Level Pressure
Sea Level Pressure 30.05 in / 1017.52 hPa   
Wind
Wind Speed 6 mph / 9 km/h ()  
Max Wind Speed 20 mph / 32 km/h   
Max Gust Speed -   
Visibility 6.3 miles / 10.2 kilometers   
Events     

Key: T is trace of precipitation, MM is missing value
Source: Averaged Metar Reports

Graphs

Observations

History Graphs Observations

Obs Go Here...

Features

Weather Apps

WunderRadio

Weather Underground Apps
Check out our wide variety of mobile and setup applications.

Weather Underground Applications

Top of Page

© Copyright 2019
The Weather Company, LLC
Time(CET)TemperatureDew PointHumidity Sea Level Pressure Visibility Wind DirectionWind SpeedGust SpeedPrecipitationEvents Conditions
12:00 AM 53.6 °F / 12.0 °C 48.2 °F / 9.0 °C 82% 29.95 in / 1014 hPa - WSW 2.3 mph / 3.7 km/h - N/A   Clear
12:30 AM 51.8 °F / 11.0 °C 48.2 °F / 9.0 °C 88% 29.95 in / 1014 hPa - SW 1.2 mph / 1.9 km/h - N/A   Clear
1:00 AM 50 °F / 10 °C 47 °F / 8 °C 87% 29.97 in / 1015 hPa 6 miles / 10 kilometers Calm Calm - -  
1:00 AM 50.0 °F / 10.0 °C 48.2 °F / 9.0 °C 94% 29.95 in / 1014 hPa - Calm Calm - N/A   Clear
2:30 AM 50.0 °F / 10.0 °C 44.6 °F / 7.0 °C 82% 29.95 in / 1014 hPa - Variable 2.3 mph / 3.7 km/h - N/A   Clear
3:00 AM 48.2 °F / 9.0 °C 42.8 °F / 6.0 °C 82% 29.95 in / 1014 hPa - Variable 2.3 mph / 3.7 km/h - N/A   Clear
3:30 AM 48.2 °F / 9.0 °C 42.8 °F / 6.0 °C 82% 29.95 in / 1014 hPa - South 3.5 mph / 5.6 km/h - N/A   Clear
4:00 AM 48 °F / 9 °C 43 °F / 6 °C 76% 29.97 in / 1015 hPa 6 miles / 10 kilometers SW 5.8 mph / 9.3 km/h - -  
4:00 AM 48.2 °F / 9.0 °C 42.8 °F / 6.0 °C 82% 29.95 in / 1014 hPa - SW 5.8 mph / 9.3 km/h - N/A   Clear
4:30 AM 46.4 °F / 8.0 °C 42.8 °F / 6.0 °C 87% 29.95 in / 1014 hPa - SW 5.8 mph / 9.3 km/h - N/A   Clear
5:00 AM 46.4 °F / 8.0 °C 42.8 °F / 6.0 °C 87% 29.98 in / 1015 hPa - SSW 4.6 mph / 7.4 km/h - N/A   Clear
5:30 AM 46.4 °F / 8.0 °C 42.8 °F / 6.0 °C 87% 29.98 in / 1015 hPa - SW 5.8 mph / 9.3 km/h - N/A   Clear
6:00 AM 46.4 °F / 8.0 °C 42.8 °F / 6.0 °C 87% 30.01 in / 1016 hPa 6.2 miles / 10.0 kilometers SSE 4.6 mph / 7.4 km/h - N/A   Partly Cloudy
6:30 AM 46.4 °F / 8.0 °C 42.8 °F / 6.0 °C 87% 30.01 in / 1016 hPa 6.2 miles / 10.0 kilometers SSE 5.8 mph / 9.3 km/h - N/A   Partly Cloudy
7:00 AM 48 °F / 9 °C 45 °F / 7 °C 84% 30.03 in / 1017 hPa 7 miles / 12 kilometers South 5.8 mph / 9.3 km/h - -   Scattered Clouds
7:00 AM 48.2 °F / 9.0 °C 44.6 °F / 7.0 °C 87% 30.01 in / 1016 hPa 6.2 miles / 10.0 kilometers South 5.8 mph / 9.3 km/h - N/A   Partly Cloudy
7:30 AM 51.8 °F / 11.0 °C 48.2 °F / 9.0 °C 88% 30.04 in / 1017 hPa 6.2 miles / 10.0 kilometers SSW 2.3 mph / 3.7 km/h - N/A   Partly Cloudy
8:00 AM 53.6 °F / 12.0 °C 50.0 °F / 10.0 °C 88% 30.04 in / 1017 hPa 6.2 miles / 10.0 kilometers WSW 2.3 mph / 3.7 km/h - N/A   Scattered Clouds
8:30 AM 57.2 °F / 14.0 °C 53.6 °F / 12.0 °C 88% 30.04 in / 1017 hPa 6.2 miles / 10.0 kilometers Calm Calm - N/A   Scattered Clouds
9:00 AM 59.0 °F / 15.0 °C 53.6 °F / 12.0 °C 82% 30.06 in / 1018 hPa 6.2 miles / 10.0 kilometers Calm Calm - N/A   Mostly Cloudy
10:00 AM 60 °F / 15 °C 53 °F / 11 °C 69% 30.09 in / 1019 hPa 6 miles / 10 kilometers North 8.1 mph / 13.0 km/h - -   Mostly Cloudy
10:00 AM 59.0 °F / 15.0 °C 51.8 °F / 11.0 °C 77% 30.06 in / 1018 hPa 6.2 miles / 10.0 kilometers North 8.1 mph / 13.0 km/h - N/A   Mostly Cloudy
10:30 AM 60.8 °F / 16.0 °C 53.6 °F / 12.0 °C 77% 30.09 in / 1019 hPa 6.2 miles / 10.0 kilometers North 10.4 mph / 16.7 km/h - N/A   Mostly Cloudy
11:00 AM 60.8 °F / 16.0 °C 53.6 °F / 12.0 °C 77% 30.09 in / 1019 hPa 6.2 miles / 10.0 kilometers North 10.4 mph / 16.7 km/h - N/A   Mostly Cloudy
11:30 AM 62.6 °F / 17.0 °C 51.8 °F / 11.0 °C 68% 30.09 in / 1019 hPa 6.2 miles / 10.0 kilometers North 11.5 mph / 18.5 km/h - N/A   Mostly Cloudy
12:30 PM 62.6 °F / 17.0 °C 51.8 °F / 11.0 °C 68% 30.09 in / 1019 hPa 6.2 miles / 10.0 kilometers North 13.8 mph / 22.2 km/h - N/A   Mostly Cloudy
1:00 PM 62 °F / 17 °C 51 °F / 11 °C 59% 30.09 in / 1019 hPa 7 miles / 12 kilometers North 15.0 mph / 24.1 km/h - -   Partly Cloudy
1:00 PM 62.6 °F / 17.0 °C 51.8 °F / 11.0 °C 68% 30.09 in / 1019 hPa 6.2 miles / 10.0 kilometers North 15.0 mph / 24.1 km/h - N/A   Scattered Clouds
1:30 PM 62.6 °F / 17.0 °C 50.0 °F / 10.0 °C 63% 30.06 in / 1018 hPa 6.2 miles / 10.0 kilometers North 17.3 mph / 27.8 km/h - N/A   Scattered Clouds
2:00 PM 62.6 °F / 17.0 °C 50.0 °F / 10.0 °C 63% 30.06 in / 1018 hPa 6.2 miles / 10.0 kilometers North 17.3 mph / 27.8 km/h - N/A   Partly Cloudy
2:30 PM 60.8 °F / 16.0 °C 48.2 °F / 9.0 °C 63% 30.06 in / 1018 hPa 6.2 miles / 10.0 kilometers North 18.4 mph / 29.6 km/h - N/A   Partly Cloudy
4:00 PM 60 °F / 16 °C 47 °F / 8 °C 52% 30.07 in / 1018 hPa 7 miles / 12 kilometers North 19.6 mph / 31.5 km/h - -   Partly Cloudy
4:00 PM 60.8 °F / 16.0 °C 46.4 °F / 8.0 °C 59% 30.06 in / 1018 hPa 6.2 miles / 10.0 kilometers North 19.6 mph / 31.5 km/h - N/A   Partly Cloudy
5:00 PM 59.0 °F / 15.0 °C 46.4 °F / 8.0 °C 63% 30.06 in / 1018 hPa 6.2 miles / 10.0 kilometers North 18.4 mph / 29.6 km/h - N/A   Partly Cloudy
5:30 PM 59.0 °F / 15.0 °C 46.4 °F / 8.0 °C 63% 30.06 in / 1018 hPa 6.2 miles / 10.0 kilometers North 18.4 mph / 29.6 km/h - N/A   Partly Cloudy
6:00 PM 57.2 °F / 14.0 °C 44.6 °F / 7.0 °C 63% 30.06 in / 1018 hPa 6.2 miles / 10.0 kilometers North 16.1 mph / 25.9 km/h - N/A   Partly Cloudy
6:30 PM 57.2 °F / 14.0 °C 44.6 °F / 7.0 °C 63% 30.09 in / 1019 hPa 6.2 miles / 10.0 kilometers North 15.0 mph / 24.1 km/h - N/A   Partly Cloudy
7:00 PM 56 °F / 13 °C 45 °F / 7 °C 57% 30.11 in / 1020 hPa 7 miles / 12 kilometers North 16.1 mph / 25.9 km/h - -   Scattered Clouds
8:00 PM 55.4 °F / 13.0 °C 44.6 °F / 7.0 °C 67% 30.12 in / 1020 hPa 6.2 miles / 10.0 kilometers NNW 12.7 mph / 20.4 km/h - N/A   Partly Cloudy
8:30 PM 55.4 °F / 13.0 °C 46.4 °F / 8.0 °C 72% 30.12 in / 1020 hPa 6.2 miles / 10.0 kilometers NNW 10.4 mph / 16.7 km/h - N/A   Scattered Clouds
9:00 PM 53.6 °F / 12.0 °C 44.6 °F / 7.0 °C 72% 30.15 in / 1021 hPa 6.2 miles / 10.0 kilometers NW 10.4 mph / 16.7 km/h - N/A   Scattered Clouds
9:30 PM 51.8 °F / 11.0 °C 44.6 °F / 7.0 °C 76% 30.15 in / 1021 hPa 6.2 miles / 10.0 kilometers West 3.5 mph / 5.6 km/h - N/A   Scattered Clouds
10:00 PM 53 °F / 12 °C 45 °F / 7 °C 65% 30.17 in / 1021 hPa 6 miles / 10 kilometers Calm Calm - -   Partly Cloudy
10:00 PM 53.6 °F / 12.0 °C 44.6 °F / 7.0 °C 72% 30.15 in / 1021 hPa 6.2 miles / 10.0 kilometers Calm Calm - N/A   Scattered Clouds
10:30 PM 51.8 °F / 11.0 °C 44.6 °F / 7.0 °C 76% 30.15 in / 1021 hPa 6.2 miles / 10.0 kilometers Calm Calm - N/A   Scattered Clouds
11:00 PM 51.8 °F / 11.0 °C 44.6 °F / 7.0 °C 76% 30.15 in / 1021 hPa 6.2 miles / 10.0 kilometers SSW 2.3 mph / 3.7 km/h - N/A   Scattered Clouds